This is the latest recevied weather packets stored in our database for station/object R2AKT-13. If no packets are shown the sender has not sent any weather packets the latest 10 day(s).
| Time | Temp. | Humidity | Pressure | Rain* | Wind** | Luminosity | Snow |
|---|---|---|---|---|---|---|---|
| 1778124289 | 12.78° C | 67% | 985.8 hPa | - | 1.79 m/s, 166° | - | - |
| 1778123804 | 12.78° C | 68% | 985.8 hPa | - | 2.24 m/s, 150° | - | - |
| 1778123294 | 12.22° C | 68% | 985.9 hPa | - | 2.24 m/s, 156° | - | - |
| 1778122804 | 12.22° C | 68% | 986 hPa | - | 1.34 m/s, 154° | - | - |
| 1778122249 | 12.22° C | 68% | 986.2 hPa | - | 0.89 m/s, 184° | - | - |
| 1778121684 | 11.67° C | 69% | 986.1 hPa | - | 1.79 m/s, 137° | - | - |
| 1778121114 | 11.67° C | 69% | 986.2 hPa | - | 1.79 m/s, 141° | - | - |
| 1778120634 | 11.67° C | 69% | 986.2 hPa | - | 1.79 m/s, 140° | - | - |
| 1778120094 | 11.67° C | 68% | 986.3 hPa | - | 1.79 m/s, 151° | - | - |
| 1778119519 | 11.67° C | 68% | 986.4 hPa | - | 1.34 m/s, 139° | - | - |
| 1778119026 | 11.67° C | 68% | 986.5 hPa | - | 1.34 m/s, 149° | - | - |
| 1778118459 | 11.67° C | 68% | 986.5 hPa | - | 1.34 m/s, 143° | - | - |
| 1778117929 | 11.67° C | 67% | 986.7 hPa | - | 1.34 m/s, 159° | - | - |
| 1778117384 | 12.22° C | 66% | 986.8 hPa | - | 1.34 m/s, 162° | - | - |
| 1778116832 | 12.22° C | 66% | 986.9 hPa | - | 1.34 m/s, 125° | - | - |
| 1778116269 | 12.22° C | 65% | 986.5 hPa | - | 1.34 m/s, 157° | - | - |
| 1778115714 | 12.22° C | 64% | 987 hPa | - | 1.34 m/s, 174° | - | - |
| 1778115179 | 12.78° C | 64% | 987 hPa | - | 1.34 m/s, 173° | - | - |
| 1778114629 | 12.78° C | 64% | 987.1 hPa | - | 1.34 m/s, 178° | - | - |
| 1778114119 | 12.78° C | 63% | 987.2 hPa | - | 1.34 m/s, 120° | - | - |
| 1778113569 | 12.78° C | 62% | 987.1 hPa | - | 1.79 m/s, 118° | - | - |
| 1778113089 | 12.78° C | 62% | 987.2 hPa | - | 1.34 m/s, 147° | - | - |
| 1778112609 | 13.33° C | 62% | 987.2 hPa | - | 1.79 m/s, 135° | - | - |
| 1778112039 | 12.78° C | 62% | 987.2 hPa | - | 1.79 m/s, 107° | - | - |
| 1778111514 | 12.78° C | 61% | 987.3 hPa | - | 1.34 m/s, 158° | - | - |
* Rain since midnight (hover to see other rain measurements)
** Current wind speed in m/s (hover to see current wind gust speed)